Home   Weather   Biberach an der Riss   Past weeks

Flag for Germany Past Weather in Biberach an der Riss, Baden-Württemberg, Germany — Yesterday and Last 2 Weeks

46 °F


Feels Like: 46 °F
Forecast: 34 / 57 °F
Wind: 1 mph from Northwest

Location: Laupheim Airport

Current Time: Oct 27, 2016 at 7:18:07 AM

Latest Report: Oct 27, 2016 at 6:20 AM

Visibility: 3 mi

Pressure: 30.45 "Hg (28.53 "Hg at 536m altitude)

Humidity: 93%

Dew Point: 45 °F

Location of Biberach an der RissLocation

Past Weather in Biberach an der Riss — Graph


Biberach an der Riss Temperature Yesterday

Maximum temperature yesterday: 54 °F (at 4:20 PM)
Minimum temperature yesterday: 48 °F (at 7:20 AM)
Average temperature yesterday: 51 °F

High & Low Weather Summary for the Past Weeks

High63 °F (Oct 16, 3:20 PM)100% (Oct 12, 6:20 AM)30.45 "Hg (Oct 12, 6:20 AM)
Low30 °F (Oct 23, 5:20 AM)54% (Oct 12, 3:20 PM)29.68 "Hg (Oct 14, 5:20 PM)
Average47 °F88%30.05 "Hg
* Reported Oct 12 5:20 AM — Oct 27 5:20 AM, Biberach an der Riss, Weather by CustomWeather, © 2016

Note: Actual official high and low records may vary slightly from our data, if they occured in-between our weather recording intervals... More about our weather records


Biberach an der Riss Weather History for the Previous 24 Hours

Scroll right to see more
Time TempWeatherWind HumidityBarometerVisibility
5:20 AM
Thu, Oct 27
46 °FPassing clouds.2 mph87%30.45 "Hg4 mi
4:20 AM46 °FPassing clouds.1 mph93%30.45 "Hg4 mi
3:20 AM46 °FPassing clouds.2 mph93%30.45 "Hg4 mi
2:20 AM48 °FPassing clouds.2 mph94%30.45 "Hg4 mi
1:20 AM48 °FPassing clouds.1 mph94%30.42 "Hg4 mi
12:20 AM48 °FPassing clouds.1 mph94%30.42 "Hg4 mi
11:20 PM
Wed, Oct 26
50 °FPassing clouds.1 mph88%30.42 "Hg6 mi
10:20 PM50 °FPassing clouds.1 mph88%30.39 "Hg6 mi
9:20 PM50 °FPassing clouds.1 mph88%30.39 "Hg6 mi
8:20 PM50 °FPassing clouds.5 mph88%30.36 "Hg6 mi
7:20 PM52 °FPassing clouds.3 mph82%30.36 "HgN/A
6:20 PM52 °FPassing clouds.3 mph82%30.36 "Hg5 mi
5:20 PM52 °FBroken clouds.5 mph82%30.33 "Hg6 mi
4:20 PM54 °FBroken clouds.6 mph77%30.33 "Hg6 mi
3:20 PM52 °FPartly sunny.5 mph82%30.33 "HgN/A
2:20 PM52 °FPartly sunny.5 mph82%30.33 "HgN/A
1:20 PM52 °FBroken clouds.7 mph82%30.33 "Hg5 mi
12:20 PM52 °FPartly sunny.6 mph82%30.33 "Hg5 mi
11:20 AM50 °FPartly sunny.5 mph88%30.33 "Hg4 mi
10:20 AM50 °FFog.7 mph88%30.33 "Hg3 mi
9:20 AM50 °FFog.6 mph88%30.33 "Hg3 mi
8:20 AM48 °FFog.3 mph100%30.30 "Hg3 mi
7:20 AM48 °FFog.2 mph94%30.30 "Hg3 mi
Weather by CustomWeather, © 2016

See weather overviewHow to use our weather pages